"Period start","avg(HW err(1)/warn(2) (#))","avg(Visibility (m))","avg(Weather code (#))","avg(Precip intensity (mm/h))","min(HW err(1)/warn(2) (#))","max(HW err(1)/warn(2) (#))","std(HW err(1)/warn(2) (#))","med(HW err(1)/warn(2) (#))","min(Visibility (m))","max(Visibility (m))","std(Visibility (m))","med(Visibility (m))","min(Weather code (#))","max(Weather code (#))","std(Weather code (#))","med(Weather code (#))","min(Precip intensity (mm/h))","max(Precip intensity (mm/h))","std(Precip intensity (mm/h))","med(Precip intensity (mm/h))"
2016-11-03 00:00:00,2,49661,0,0.00,2,2,0,2,47454,50000,760,50000,0,0,0,0,0.00,0.00,0.00,0.00
2016-11-03 00:10:00,2,50000,0,0.00,2,2,0,2,50000,50000,0,50000,0,0,0,0,0.00,0.00,0.00,0.00
2016-11-03 00:20:00,2,28910,43,0.11,2,2,0,2,7000,50000,18256,25642,0,71,35,71,0.00,0.50,0.15,0.05
2016-11-03 00:30:00,2,9856,71,0.38,2,2,0,2,2706,21684,5748,9364,71,71,0,71,0.00,0.90,0.32,0.23
2016-11-03 00:40:00,2,13902,71,0.24,2,2,0,2,5907,25842,6263,12733,71,71,0,71,0.05,0.65,0.20,0.15
2016-11-03 00:50:00,2,43791,73,0.02,2,2,0,2,26452,50000,8096,47220,71,77,3,71,0.00,0.10,0.03,0.00
2016-11-03 01:00:00,2,37319,76,0.02,2,2,0,2,23317,50000,7010,36242,71,78,3,77,0.00,0.10,0.03,0.00
2016-11-03 01:10:00,2,45106,47,0.00,2,2,0,2,29902,50000,6387,47862,0,78,38,78,0.00,0.00,0.00,0.00
2016-11-03 01:20:00,2,26152,71,0.06,2,2,0,2,12274,49597,11284,21050,71,71,0,71,0.00,0.10,0.04,0.08
2016-11-03 01:30:00,2,45552,14,0.00,2,2,0,2,26709,50000,7016,48932,0,71,28,0,0.00,0.00,0.00,0.00
2016-11-03 01:40:00,2,24584,50,0.10,2,2,0,2,2576,46709,12500,22192,0,71,33,71,0.00,0.75,0.22,0.00
2016-11-03 01:50:00,2,22698,71,0.15,2,2,0,2,2864,46513,14127,20768,71,71,0,71,0.00,0.75,0.22,0.05
2016-11-03 02:00:00,2,3760,71,0.62,2,2,0,2,1549,6681,1575,4094,71,71,0,71,0.00,1.40,0.50,0.60
2016-11-03 02:10:00,2,5074,71,0.29,2,2,0,2,2730,7394,1453,4674,71,71,0,71,0.10,0.70,0.19,0.25
2016-11-03 02:20:00,2,3852,71,0.29,2,2,0,2,2247,6047,1111,3694,71,71,0,71,0.10,0.50,0.11,0.25
2016-11-03 02:30:00,2,5124,71,0.36,2,2,0,2,2189,9754,2337,4924,71,71,0,71,0.00,1.25,0.40,0.17
2016-11-03 02:40:00,2,1874,71,1.77,2,2,0,2,1159,2953,612,1748,71,71,0,71,0.45,2.85,0.74,1.62
2016-11-03 02:50:00,2,1114,71,2.29,2,2,0,2,865,1417,182,1076,71,71,0,71,1.40,3.35,0.56,2.33
2016-11-03 03:00:00,2,1278,71,2.31,2,2,0,2,513,2016,523,1238,71,71,0,71,1.30,3.35,0.80,2.33
2016-11-03 03:10:00,2,1965,71,1.58,2,2,0,2,643,4509,1265,1461,71,71,0,71,0.35,2.35,0.64,1.78
2016-11-03 03:20:00,2,9096,71,0.67,2,2,0,2,1610,24485,6595,7716,71,71,0,71,0.00,1.95,0.65,0.38
2016-11-03 03:30:00,2,26074,40,0.01,2,2,0,2,8140,48114,10091,25886,0,71,33,56,0.00,0.10,0.03,0.00
2016-11-03 03:40:00,2,40431,0,0.00,2,2,0,2,31893,50000,7040,40263,0,0,0,0,0.00,0.00,0.00,0.00
2016-11-03 03:50:00,2,40437,0,0.00,2,2,0,2,21184,50000,9555,42764,0,0,0,0,0.00,0.00,0.00,0.00
2016-11-03 04:00:00,2,46644,0,0.00,2,2,0,2,34120,50000,5164,49700,0,0,0,0,0.00,0.00,0.00,0.00
2016-11-03 04:10:00,2,39852,0,0.00,2,2,0,2,21795,50000,7626,43438,0,0,0,0,0.00,0.00,0.00,0.00
2016-11-03 04:20:00,2,44081,0,0.00,2,2,0,2,35191,50000,4927,43887,0,0,0,0,0.00,0.00,0.00,0.00
2016-11-03 04:30:00,2,46722,0,0.00,2,2,0,2,40906,50000,3803,49477,0,0,0,0,0.00,0.00,0.00,0.00
2016-11-03 04:40:00,2,47008,0,0.00,2,2,0,2,36666,50000,4490,49908,0,0,0,0,0.00,0.00,0.00,0.00
2016-11-03 04:50:00,2,47482,0,0.00,2,2,0,2,42887,50000,2268,48302,0,0,0,0,0.00,0.00,0.00,0.00
2016-11-03 05:00:00,2,47115,0,0.00,2,2,0,2,39985,50000,3414,48496,0,0,0,0,0.00,0.00,0.00,0.00
2016-11-03 05:10:00,2,49994,0,0.00,2,2,0,2,49935,50000,20,50000,0,0,0,0,0.00,0.00,0.00,0.00
2016-11-03 05:20:00,2,50000,0,0.00,2,2,0,2,50000,50000,0,50000,0,0,0,0,0.00,0.00,0.00,0.00
2016-11-03 05:30:00,2,41355,7,0.00,2,2,0,2,22742,50000,8836,43859,0,71,21,0,0.00,0.00,0.00,0.00
2016-11-03 05:40:00,2,13006,71,0.33,2,2,0,2,4931,46546,12148,6860,71,71,0,71,0.00,0.80,0.29,0.25
2016-11-03 05:50:00,2,5609,71,0.77,2,2,0,2,3126,8568,1938,4774,71,71,0,71,0.25,1.30,0.30,0.78
2016-11-03 06:00:00,2,4973,71,0.76,2,2,0,2,2224,8672,2188,4212,71,71,0,71,0.15,1.40,0.41,0.73
2016-11-03 06:10:00,2,4716,71,0.95,2,2,0,2,3179,9018,1742,4142,71,71,0,71,0.10,1.40,0.39,1.05
2016-11-03 06:20:00,2,1901,71,2.44,2,2,0,2,737,6924,1871,1121,71,71,0,71,0.30,4.20,1.29,2.85
2016-11-03 06:30:00,2,963,71,4.01,2,2,0,2,448,1285,253,1000,71,72,0,71,2.05,5.00,0.99,4.47
2016-11-03 06:40:00,2,859,72,3.46,2,2,0,2,578,1290,229,818,71,72,0,72,1.20,6.60,1.53,3.20
2016-11-03 06:50:00,2,2270,71,1.85,2,2,0,2,733,4283,1166,2276,71,71,0,71,0.40,5.50,1.47,1.30
2016-11-03 07:00:00,2,4286,71,0.83,2,2,0,2,1617,6529,1349,4406,71,71,0,71,0.25,1.55,0.41,0.80
2016-11-03 07:10:00,2,6975,71,0.43,2,2,0,2,3408,13389,3223,5738,71,71,0,71,0.05,0.90,0.27,0.50
2016-11-03 07:20:00,2,5220,71,0.74,2,2,0,2,3652,9532,1826,4478,71,71,0,71,0.15,1.85,0.47,0.73
2016-11-03 07:30:00,2,4545,71,0.88,2,2,0,2,1953,8011,2126,3805,71,71,0,71,0.30,1.55,0.53,0.65
2016-11-03 07:40:00,2,2621,71,1.36,2,2,0,2,1115,4192,896,2561,71,71,0,71,0.90,2.35,0.38,1.38
2016-11-03 07:50:00,2,1589,71,2.27,2,2,0,2,750,3632,782,1316,71,71,0,71,1.20,3.15,0.64,2.42
2016-11-03 08:00:00,2,1050,72,4.79,2,2,0,2,582,3313,770,836,71,72,0,72,0.70,8.30,2.01,4.83
2016-11-03 08:10:00,2,637,72,4.78,2,2,0,2,412,932,156,638,72,72,0,72,3.60,6.75,1.08,4.15
2016-11-03 08:20:00,2,761,72,4.54,2,2,0,2,507,1091,189,702,72,72,0,72,1.25,6.10,1.43,4.75
2016-11-03 08:30:00,2,2854,71,1.65,2,2,0,2,603,7216,2097,1754,71,72,0,71,0.45,3.20,1.02,1.40
2016-11-03 08:40:00,2,3237,71,1.24,2,2,0,2,1692,5278,1138,3120,71,71,0,71,0.60,1.95,0.49,1.20
2016-11-03 08:50:00,2,1769,71,2.21,2,2,0,2,796,2533,514,1854,71,71,0,71,0.45,3.95,0.92,2.25
2016-11-03 09:00:00,2,753,72,4.19,2,2,0,2,512,1248,199,718,71,72,0,72,3.35,5.10,0.56,4.17
2016-11-03 09:10:00,2,604,72,5.20,2,2,0,2,396,785,110,630,72,72,0,72,2.70,6.90,1.06,5.38
2016-11-03 09:20:00,2,890,72,3.30,2,2,0,2,536,1415,256,856,71,72,0,72,1.60,6.40,1.43,2.75
2016-11-03 09:30:00,2,4263,71,1.00,2,2,0,2,719,7875,1775,4378,71,71,0,71,0.45,3.90,0.98,0.65
2016-11-03 09:40:00,2,5861,71,0.57,2,2,0,2,1768,8314,2167,6294,71,71,0,71,0.20,1.15,0.31,0.47
2016-11-03 09:50:00,2,2258,71,2.26,2,2,0,2,861,5737,1345,1948,71,71,0,71,0.35,4.35,1.16,2.00
2016-11-03 10:00:00,2,5214,71,0.97,2,2,0,2,1480,17673,5290,2398,71,71,0,71,0.10,2.45,0.81,0.80
2016-11-03 10:10:00,2,15484,71,0.26,2,2,0,2,2474,40904,12106,9466,71,71,0,71,0.00,1.50,0.43,0.17
2016-11-03 10:20:00,2,24667,71,0.11,2,2,0,2,12761,39234,7847,20873,71,71,0,71,0.00,0.45,0.16,0.03
2016-11-03 10:30:00,2,28945,72,0.06,2,2,0,2,18492,42466,7682,28340,71,77,2,71,0.00,0.15,0.06,0.05
2016-11-03 10:40:00,2,21356,73,0.12,2,2,0,2,7494,44189,12527,16803,71,77,3,71,0.00,0.40,0.16,0.00
2016-11-03 10:50:00,2,27877,71,0.15,2,2,0,2,7914,48136,11917,26686,71,71,0,71,0.00,0.45,0.15,0.08
2016-11-03 11:00:00,2,15121,71,0.30,2,2,0,2,1727,42957,13478,8726,71,71,0,71,0.00,1.00,0.33,0.10
2016-11-03 11:10:00,2,6619,71,0.47,2,2,0,2,1248,20283,5284,4465,71,71,0,71,0.00,1.15,0.37,0.35
2016-11-03 11:20:00,2,15748,71,0.14,2,2,0,2,10730,21872,3854,14627,71,71,0,71,0.00,0.30,0.10,0.15
2016-11-03 11:30:00,2,14125,71,0.41,2,2,0,2,1765,24766,7512,13786,71,71,0,71,0.00,1.55,0.47,0.20
2016-11-03 11:40:00,2,25216,71,0.07,2,2,0,2,15652,32260,5341,25117,71,71,0,71,0.00,0.40,0.12,0.05
2016-11-03 11:50:00,2,23188,71,0.14,2,2,0,2,11935,38094,8733,22408,71,71,0,71,0.00,0.55,0.20,0.03
2016-11-03 12:00:00,2,20294,71,0.11,2,2,0,2,12708,30478,5123,19208,71,71,0,71,0.00,0.30,0.11,0.12
2016-11-03 12:10:00,2,30238,71,0.02,2,2,0,2,16440,38290,6581,30622,71,71,0,71,0.00,0.10,0.03,0.00
2016-11-03 12:20:00,2,38310,71,0.02,2,2,0,2,19659,50000,10417,40898,71,71,0,71,0.00,0.10,0.03,0.00
2016-11-03 12:30:00,2,46509,16,0.00,2,2,0,2,27693,50000,7234,50000,0,77,31,0,0.00,0.00,0.00,0.00
2016-11-03 12:40:00,2,49631,0,0.00,2,2,0,2,47846,50000,750,50000,0,0,0,0,0.00,0.00,0.00,0.00
2016-11-03 12:50:00,2,50000,0,0.00,2,2,0,2,50000,50000,0,50000,0,0,0,0,0.00,0.00,0.00,0.00
2016-11-03 13:00:00,2,50000,0,0.00,2,2,0,2,50000,50000,0,50000,0,0,0,0,0.00,0.00,0.00,0.00
2016-11-03 13:10:00,2,49964,0,0.00,2,2,0,2,49641,50000,108,50000,0,0,0,0,0.00,0.00,0.00,0.00
2016-11-03 13:20:00,2,50000,0,0.00,2,2,0,2,50000,50000,0,50000,0,0,0,0,0.00,0.00,0.00,0.00
2016-11-03 13:30:00,2,49670,0,0.00,2,2,0,2,47013,50000,891,50000,0,0,0,0,0.00,0.00,0.00,0.00
2016-11-03 13:40:00,2,50000,0,0.00,2,2,0,2,50000,50000,0,50000,0,0,0,0,0.00,0.00,0.00,0.00
2016-11-03 13:50:00,2,42107,7,0.00,2,2,0,2,11911,50000,11255,46220,0,71,21,0,0.00,0.00,0.00,0.00
2016-11-03 14:00:00,2,34521,66,0.01,2,2,0,2,19330,46979,7323,33590,41,77,12,71,0.00,0.10,0.03,0.00
2016-11-03 14:10:00,2,33997,66,0.01,2,2,0,2,7575,49740,13420,39662,0,77,22,71,0.00,0.10,0.03,0.00
2016-11-03 14:20:00,2,18628,72,0.13,2,2,0,2,6212,31778,7285,17576,71,77,2,71,0.00,0.50,0.14,0.08
2016-11-03 14:30:00,2,8241,71,0.16,2,2,0,2,1969,14042,3613,8604,71,71,0,71,0.00,0.40,0.17,0.08
2016-11-03 14:40:00,2,4726,71,0.33,2,2,0,2,1594,9401,2737,4338,71,71,0,71,0.05,0.70,0.24,0.28
2016-11-03 14:50:00,2,12935,71,0.18,2,2,0,2,1914,27204,8333,11517,71,71,0,71,0.00,0.90,0.26,0.08
2016-11-03 15:00:00,2,8005,71,0.27,2,2,0,2,2091,17824,4579,7576,71,71,0,71,0.00,0.80,0.22,0.20
2016-11-03 15:10:00,2,11762,71,0.25,2,2,0,2,1829,21091,6708,13444,71,71,0,71,0.00,1.10,0.36,0.10
2016-11-03 15:20:00,2,12846,57,0.13,2,2,0,2,5403,23718,6291,11874,0,71,28,71,0.00,0.40,0.12,0.10
2016-11-03 15:30:00,2,18074,71,0.14,2,2,0,2,2874,36348,8382,17512,71,71,0,71,0.00,0.40,0.13,0.15
2016-11-03 15:40:00,2,19266,71,0.08,2,2,0,2,7767,30932,8286,19235,71,71,0,71,0.00,0.30,0.10,0.05
2016-11-03 15:50:00,2,12583,71,0.23,2,2,0,2,6552,21352,4739,11946,71,71,0,71,0.05,0.90,0.24,0.15
2016-11-03 16:00:00,2,9430,71,0.41,2,2,0,2,4254,18114,4089,8124,71,71,0,71,0.00,0.70,0.20,0.45
2016-11-03 16:10:00,2,6753,71,0.42,2,2,0,2,4153,11201,1955,6041,71,71,0,71,0.05,0.75,0.22,0.45
2016-11-03 16:20:00,2,5703,71,0.40,2,2,0,2,3037,7264,1065,5796,71,71,0,71,0.05,0.70,0.21,0.38
2016-11-03 16:30:00,2,6014,71,0.47,2,2,0,2,3900,11158,2113,5424,71,71,0,71,0.15,0.95,0.24,0.45
2016-11-03 16:40:00,2,8376,71,0.28,2,2,0,2,4994,11312,2371,8648,71,71,0,71,0.10,0.60,0.18,0.23
2016-11-03 16:50:00,2,5344,71,0.61,2,2,0,2,2963,13470,2977,4394,71,71,0,71,0.05,1.40,0.42,0.55
2016-11-03 17:00:00,2,3313,71,1.11,2,2,0,2,2665,4139,525,3076,71,71,0,71,0.50,1.75,0.36,1.08
2016-11-03 17:10:00,2,3356,71,1.02,2,2,0,2,1884,5138,1113,3326,71,71,0,71,0.20,1.85,0.53,0.90
2016-11-03 17:20:00,2,11376,71,0.31,2,2,0,2,3509,24674,6877,9148,71,71,0,71,0.00,1.10,0.33,0.25
2016-11-03 17:30:00,2,10053,71,0.24,2,2,0,2,2071,14759,4032,10357,71,71,0,71,0.00,1.05,0.31,0.08
2016-11-03 17:40:00,2,12053,71,0.22,2,2,0,2,5416,26979,5956,10332,71,71,0,71,0.00,0.75,0.23,0.17
2016-11-03 17:50:00,2,4634,64,0.74,2,2,0,2,2650,8274,1726,4411,0,71,21,71,0.00,1.50,0.50,0.68
2016-11-03 18:00:00,2,4380,71,0.82,2,2,0,2,1981,8944,1860,4031,71,71,0,71,0.05,1.35,0.40,0.78
2016-11-03 18:10:00,2,8315,71,0.35,2,2,0,2,4370,13040,2930,8156,71,71,0,71,0.05,0.70,0.21,0.35
2016-11-03 18:20:00,2,11404,71,0.24,2,2,0,2,6189,16057,3560,12126,71,71,0,71,0.00,0.75,0.25,0.10
2016-11-03 18:30:00,2,13002,73,0.15,2,2,0,2,6128,23492,4993,11460,71,77,3,71,0.00,0.65,0.18,0.10
2016-11-03 18:40:00,2,7046,71,0.40,2,2,0,2,5233,11088,1528,6722,71,71,0,71,0.05,0.80,0.24,0.33
2016-11-03 18:50:00,2,4962,64,0.47,2,2,0,2,2387,6673,1333,4728,0,71,21,71,0.00,0.70,0.24,0.55
2016-11-03 19:00:00,2,6105,71,0.42,2,2,0,2,3140,11619,2610,5050,71,71,0,71,0.10,1.00,0.29,0.35
2016-11-03 19:10:00,2,10138,71,0.12,2,2,0,2,4868,15396,2811,10028,71,71,0,71,0.00,0.30,0.09,0.10
2016-11-03 19:20:00,2,10269,71,0.11,2,2,0,2,4517,20081,5651,7468,71,71,0,71,0.00,0.30,0.09,0.10
2016-11-03 19:30:00,2,12366,71,0.12,2,2,0,2,8169,18546,3948,10104,71,71,0,71,0.00,0.80,0.23,0.05
2016-11-03 19:40:00,2,17266,71,0.09,2,2,0,2,7281,32560,7924,16738,71,71,0,71,0.00,0.35,0.13,0.00
2016-11-03 19:50:00,2,8973,71,0.16,2,2,0,2,3935,16071,3796,7818,71,71,0,71,0.00,0.65,0.20,0.08
2016-11-03 20:00:00,2,11846,71,0.25,2,2,0,2,5116,21243,4509,11943,71,71,0,71,0.00,0.75,0.28,0.08
2016-11-03 20:10:00,2,27051,71,0.04,2,2,0,2,15798,40359,8103,28774,71,71,0,71,0.00,0.20,0.07,0.00
2016-11-03 20:20:00,2,31824,72,0.02,2,2,0,2,13542,45934,9900,33894,71,77,2,71,0.00,0.05,0.02,0.00
2016-11-03 20:30:00,2,13531,73,0.21,2,2,0,2,5783,19942,4717,13608,71,77,3,71,0.00,0.65,0.23,0.12
2016-11-03 20:40:00,2,7148,71,0.62,2,2,0,2,2243,14211,4193,5102,71,71,0,71,0.05,1.85,0.54,0.53
2016-11-03 20:50:00,2,4400,71,0.54,2,2,0,2,2323,8013,1634,4196,71,71,0,71,0.20,1.10,0.28,0.45
2016-11-03 21:00:00,2,4020,71,0.72,2,2,0,2,2234,6880,1366,3789,71,71,0,71,0.15,1.15,0.30,0.73
2016-11-03 21:10:00,2,3033,71,0.78,2,2,0,2,2249,3877,523,3150,71,71,0,71,0.25,1.65,0.48,0.53
2016-11-03 21:20:00,2,4071,71,0.49,2,2,0,2,2225,5314,1000,4282,71,71,0,71,0.05,1.10,0.32,0.52
2016-11-03 21:30:00,2,7193,71,0.39,2,2,0,2,3553,12432,2531,6876,71,71,0,71,0.05,0.95,0.27,0.28
2016-11-03 21:40:00,2,6629,71,0.25,2,2,0,2,3951,11722,2045,6108,71,71,0,71,0.05,0.40,0.13,0.28
2016-11-03 21:50:00,2,10596,71,0.22,2,2,0,2,3824,21439,5454,8517,71,71,0,71,0.00,0.55,0.19,0.15
2016-11-03 22:00:00,2,4899,71,0.65,2,2,0,2,3426,9172,1801,3978,71,71,0,71,0.45,0.95,0.16,0.60
2016-11-03 22:10:00,2,9411,71,0.45,2,2,0,2,5539,15506,3015,9096,71,71,0,71,0.10,1.15,0.31,0.45
2016-11-03 22:20:00,2,6516,71,0.46,2,2,0,2,4167,11256,2094,6455,71,71,0,71,0.20,0.85,0.21,0.40
2016-11-03 22:30:00,2,7445,71,0.32,2,2,0,2,3627,12851,2704,6633,71,71,0,71,0.05,0.65,0.21,0.23
2016-11-03 22:40:00,2,6208,71,0.39,2,2,0,2,4007,11018,2037,5604,71,71,0,71,0.15,0.70,0.16,0.35
2016-11-03 22:50:00,2,6853,71,0.53,2,2,0,2,2999,11374,2611,6979,71,71,0,71,0.05,1.05,0.27,0.47
2016-11-03 23:00:00,2,7606,71,0.38,2,2,0,2,4332,11669,2014,7166,71,71,0,71,0.05,0.85,0.27,0.43
2016-11-03 23:10:00,2,10174,71,0.25,2,2,0,2,8075,12047,1370,10337,71,71,0,71,0.05,0.75,0.21,0.15
2016-11-03 23:20:00,2,7761,71,0.40,2,2,0,2,4553,10657,1745,7990,71,71,0,71,0.05,0.80,0.27,0.33
2016-11-03 23:30:00,2,7670,71,0.29,2,2,0,2,3992,11224,2545,7595,71,71,0,71,0.10,0.75,0.23,0.20
2016-11-03 23:40:00,2,17481,71,0.07,2,2,0,2,4457,32589,7396,16854,71,71,0,71,0.00,0.60,0.18,0.00
2016-11-03 23:50:00,2,13732,72,0.02,2,2,0,2,9013,16382,2029,13787,71,77,2,71,0.00,0.15,0.05,0.00
